Location: Allisons_Woods
(35.8920°N, 81.8170°W)
Time: 06:04:15
(UTC-04:00)

Daily predictions for brighter satellites

Satellite Brightness Start Highest point End
(mag) Time Altitude Azimuth Time Altitude Azimuth Time Altitude Azimuth
Cosmos 2227 4.3 20:26:12 10° NNW 20:31:58 85° ENE 20:37:38 10° SSE
Cosmos 1707 Rocket 3.6 20:29:26 10° S 20:33:52 90° WSW 20:38:18 10° N
Cosmos 2026 Rocket 4.5 20:28:51 10° N 20:34:37 39° ENE 20:40:16 10° SE
Cosmos 1455 2.8 20:31:00 10° SSW 20:34:45 62° W 20:38:30 10° N
FENGYUN 3A 3.8 20:33:16 10° SSE 20:38:38 83° WSW 20:44:00 10° NNW
Cosmos 1733 Rocket 4.2 20:36:41 10° NNE 20:40:26 26° ENE 20:44:08 10° SE
Helios 1A 4.2 20:39:55 10° SE 20:43:20 24° ENE 20:46:47 10° NNE
USA 267 3.7 20:38:31 10° NE 20:45:01 68° NW 20:51:29 10° WSW
Cosmos 1862 4.4 20:42:18 10° NNE 20:45:44 26° ENE 20:49:09 10° SE
Cosmos 1862 Rocket 4.3 20:43:44 10° SSE 20:47:44 34° E 20:51:47 10° NNE
Cosmos 1634 Rocket 4.1 20:51:02 10° S 20:57:20 84° W 21:03:42 10° N
Cosmos 1092 Rocket 4.4 20:53:54 10° N 21:00:13 72° W 21:06:31 10° S
Cosmos 2263 Rocket 2.6 20:54:52 10° N 21:00:14 47° ENE 21:05:09 12° SE
Spot 2 Rocket 3.5 20:56:17 10° SSE 21:01:22 88° E 21:06:29 10° NNW
Cosmos 1503 Rocket 4.0 20:59:03 10° NNW 21:04:18 89° ENE 21:09:29 10° SSE
USA 186 1.4 21:02:56 10° SSE 21:05:40 63° ENE 21:08:36 10° N
SAR-Lupe-4 4.3 21:03:05 13° SE 21:05:51 36° ENE 21:09:10 10° N
Cosmos 1939 Rocket 3.9 21:03:23 14° ESE 21:06:03 28° ENE 21:09:27 10° NNE
Resurs 1-3 3.7 21:02:57 10° S 21:07:20 81° WSW 21:11:44 10° NNW
Cosmos 2322 Rocket 3.0 21:03:40 10° SW 21:09:09 55° WNW 21:14:40 10° NNE
Cosmos 1354 Rocket 4.1 21:05:34 10° NNW 21:10:50 79° WSW 21:16:04 10° SSE
Atlas Centaur 2 2.9 21:07:04 10° WSW 21:13:11 53° S 21:19:23 15° E
H-2A R/B 4.2 21:12:33 10° SSW 21:16:11 37° W 21:19:47 10° NNW
Cosmos 2360 Rocket 2.2 21:11:14 10° S 21:16:47 63° ESE 21:22:23 10° NNE
USA 234 4.2 21:12:08 12° E 21:17:29 35° NNE 21:23:15 10° NNW
Cosmos 1825 2.4 21:15:02 10° N 21:18:50 73° W 21:22:37 10° S
COSMOS 2428 3.6 21:14:24 10° SSE 21:19:06 27° ESE 21:23:48 10° NE
Intercosmos 25 Rocket 3.5 21:17:01 10° SSW 21:20:09 63° W 21:24:08 10° N
Envisat 3.1 21:17:09 13° SSE 21:21:34 59° ENE 21:26:34 10° N
Cosmos 1655 Rocket 4.0 21:16:09 10° N 21:22:34 80° E 21:28:53 10° S
SAR-Lupe-1 4.2 21:21:01 21° SE 21:23:08 52° ENE 21:26:39 10° N
CZ-4B DEB 2.9 21:22:32 28° SE 21:23:44 46° ENE 21:26:40 10° N
Meteor 1-29 2.8 21:21:01 10° NNE 21:24:27 66° E 21:27:51 10° S
Lacrosse 4 Rocket 2.5 21:22:59 10° NW 21:27:09 44° WSW 21:31:21 10° S
Cosmos 1408 3.4 21:23:55 10° NNW 21:27:29 50° W 21:31:00 10° S
Cosmos 1867 4.1 21:22:45 10° NNW 21:27:58 44° NE 21:30:53 24° ESE
Helios 1B rocket 2.4 21:24:07 10° NNE 21:28:14 86° WNW 21:32:20 10° SSW
Milstar 3 3.6 21:21:51 10° W 21:29:51 41° SSW 21:33:52 21° SE
CZ-4B DEB 4.4 21:27:23 18° SSE 21:29:54 86° ENE 21:33:28 10° N
ATLAS 5 CENTAUR R/B 2.6 21:25:38 10° NNW 21:31:40 60° NE 21:35:40 24° SE
Cosmos 2221 Rocket 4.4 21:32:02 27° ESE 21:32:55 29° E 21:36:43 10° NNE
Cosmos 2279 Rocket 4.2 21:27:30 10° SSW 21:33:44 74° W 21:39:59 10° N
Cosmos 2322 3.6 21:28:47 10° SSW 21:34:28 77° ESE 21:40:11 10° NNE
SEDSat Delta rocket 3.7 21:30:15 10° WSW 21:35:09 53° S 21:37:59 27° ESE
SL-16 R/B 4.2 21:35:02 10° WSW 21:40:01 31° WNW 21:45:02 10° N
ERS-1 Rocket 3.4 21:42:02 30° ESE 21:43:56 44° ENE 21:48:42 10° N
SeaSat 1 4.3 21:44:57 14° ENE 21:46:16 15° NE 21:49:04 10° NNE
Sakura Rocket 3.8 21:43:07 10° SW 21:46:24 29° S 21:46:24 29° S
Resurs 01 Rocket 3.9 21:44:55 10° SSW 21:48:27 23° W 21:52:00 10° NW
Centaur AC-42 4.1 21:32:30 10° W 21:50:04 28° SSW 21:53:32 19° SSE
Cosmos 2237 Rocket 4.2 21:58:35 12° ENE 21:58:35 12° ENE 21:59:11 10° ENE
Cosmos 2333 4.3 21:52:02 14° S 21:56:42 53° ESE 22:02:18 10° NNE
NOSS 3-1 (C) 3.6 21:54:39 26° SSE 21:57:13 41° ESE 22:02:57 10° NE
YAOGAN 6 2.4 21:58:12 67° ESE 21:58:30 73° ENE 22:02:07 10° N
Cosmos 2333 Rocket 3.5 22:00:04 24° ENE 22:00:04 24° ENE 22:03:16 10° NE
SPOT 5 3.7 21:59:59 31° ENE 22:00:14 31° ENE 22:04:18 10° N
Cosmos 1908 Rocket 3.4 21:57:14 10° N 22:01:35 87° W 22:02:58 43° S
Cosmos 1844 Rocket 3.5 21:56:44 10° N 22:01:42 32° ENE 22:02:44 30° E
Cosmos 2278 Rocket 4.1 21:59:43 10° NNE 22:02:38 14° NE 22:03:38 14° ENE
USA 229 DEB 3.9 21:56:30 10° SW 22:03:17 72° WNW 22:10:13 10° NNE
USA 229 3.9 21:56:37 10° SW 22:03:24 72° WNW 22:10:20 10° NNE
MetOp-A 4.4 22:04:25 42° ESE 22:05:40 51° ENE 22:10:51 10° N
OAO 3 Rocket 3.5 22:02:13 10° W 22:06:58 52° SSW 22:07:39 48° SSE
Sich 1 Rocket 3.7 22:03:31 10° N 22:08:01 74° W 22:09:37 39° S
CZ-4C R/B 4.4 22:03:08 10° N 22:08:33 22° NE 22:11:50 17° ENE
NOSS 3-1 (A) 4.0 22:15:18 35° E 22:15:18 35° E 22:19:35 10° NE
Cosmos 1782 Rocket 3.4 22:11:50 10° N 22:16:13 77° E 22:16:24 75° ESE
SPOT 1/Viking Rocket 4.4 22:16:34 34° ENE 22:16:37 34° ENE 22:21:17 10° N
Cosmos 2219 Rocket 2.2 22:20:01 52° E 22:20:01 52° E 22:25:19 10° NNE
Cosmos 1777 Rocket 3.9 22:16:04 10° N 22:21:19 64° ENE 22:21:50 60° ESE
Okean 1-7 3.0 22:21:00 65° SSW 22:21:37 82° W 22:26:03 10° N
USA 245 4.3 22:21:27 53° E 22:21:58 55° ENE 22:26:48 10° N
Cosmos 1782 3.8 22:30:21 39° NNE 22:30:21 39° NNE 22:32:58 10° N
Okean 2 Rocket 3.1 22:26:48 10° N 22:30:55 71° NNE 22:30:55 71° NNE
Nimbus 7 Rocket 4.3 22:36:32 10° NNE 22:42:32 80° ESE 22:43:21 67° S
Terra 3.5 22:45:02 23° NE 22:45:02 23° NE 22:47:32 10° NNE
Cosmos 2263 Rocket 4.3 22:39:47 10° NW 22:43:44 20° W 22:46:54 13° SW
Meteor 1-27 Rocket 4.4 22:46:37 41° NE 22:46:37 41° NE 22:50:41 10° NNE
Cosmos 1417 Rocket 4.3 22:58:13 83° SE 22:58:24 84° E 23:04:47 10° N
USA 234 3.2 22:59:28 64° SSW 23:00:08 69° SW 23:06:40 10° NW
Atlas Centaur 2 3.1 22:55:35 10° W 23:02:01 53° SSW 23:02:01 53° SSW
COSMOS 2428 4.1 22:57:58 10° SW 23:03:09 36° WNW 23:08:23 10° N
Cosmos 1745 Rocket 4.5 22:57:29 10° N 23:02:51 48° NE 23:02:51 48° NE
H-2A R/B 2.6 23:09:10 53° NNW 23:09:10 53° NNW 23:12:54 10° NNW
MOS 1-B Rocket 4.1 23:09:36 60° WSW 23:09:49 61° WSW 23:15:24 10° NNW
Cosmos 1980 4.3 23:13:33 50° NNE 23:13:33 50° NNE 23:17:41 10° NNE
Meteor 1-11 Rocket 4.2 23:09:26 10° N 23:13:39 52° NNE 23:13:39 52° NNE
NOSS 0 Rocket 4.0 23:16:17 75° NW 23:16:17 75° NW 23:22:13 10° NNE
ATLAS 5 CENTAUR R/B 4.1 23:11:19 10° WNW 23:16:05 23° WSW 23:17:14 22° SW
Cosmos 1844 4.0 23:11:44 10° NNW 23:16:28 61° NW 23:16:28 61° NW
SL-16 R/B 4.3 23:22:15 16° NE 23:22:15 16° NE 23:23:27 10° NE
ARGOS 4.0 23:18:59 43° W 23:18:59 43° W 23:23:50 10° NNW
SeaSat 1 3.4 23:24:45 44° NW 23:24:45 44° NW 23:28:10 10° NNW
H-2A R/B 4.1 23:31:00 25° NNW 23:31:00 25° NNW 23:32:54 10° NNW
Cosmos 2237 Rocket 3.1 23:40:20 47° NNW 23:40:20 47° NNW 23:44:45 10° NNE
Cosmos 2333 Rocket 3.4 23:41:57 37° WNW 23:42:34 38° WNW 23:47:55 10° N
Cosmos 1844 Rocket 4.2 23:40:40 10° NW 23:44:25 28° W 23:44:25 28° W
Cosmos 2278 Rocket 3.2 23:41:42 10° NNW 23:45:29 44° NNW 23:45:29 44° NNW
